,,Stat5,,Stat1,,Stat2,,Stat3,,Stat4,,Wind1,,Wind1,
time,status,PA1M_AVG,status,PR1M_SUM,status,RH1M_AVG,status,SR1M_AVG,status,TA1M_AVG,status,W1dAve1m,status,W1sAve1m,
2000-11-24, 00:00:00,VALID,917.045,VALID,0,VALID,100,VALID,0,VALID,18.5682,VALID,228,VALID,0.952925,
2000-11-24, 00:01:00,VALID,917.055,VALID,0,VALID,100,VALID,0.0339617,VALID,18.571,VALID,163,VALID,0.698396,
2000-11-24, 00:02:00,VALID,917.051,VALID,0,VALID,100,VALID,0.0169808,VALID,18.5648,VALID,206,VALID,0.973273,
2000-11-24, 00:03:00,VALID,917.018,VALID,0,VALID,100,VALID,-0.0339617,VALID,18.5791,VALID,282,VALID,0.077097,
2000-11-24, 00:04:00,VALID,917.024,VALID,0,VALID,100,VALID,-0.101885,VALID,18.5726,VALID,253,VALID,0.396267,
2000-11-24, 00:05:00,VALID,916.983,VALID,0,VALID,100,VALID,-0.101885,VALID,18.5823,VALID,35,VALID,1.31867,
2000-11-24, 00:06:00,VALID,916.954,VALID,0,VALID,100,VALID,-0.101885,VALID,18.5823,VALID,103,VALID,1.16758,
2000-11-24, 00:07:00,VALID,916.928,VALID,0,VALID,100,VALID,-0.118866,VALID,18.5892,VALID,131,VALID,0.701953,
2000-11-24, 00:08:00,VALID,916.884,VALID,0,VALID,100,VALID,-0.101885,VALID,18.5925,VALID,138,VALID,0.296074,
2000-11-24, 00:09:00,VALID,916.858,VALID,0,VALID,100,VALID,-0.118866,VALID,18.5761,VALID,118,VALID,0.103516,
2000-11-24, 00:10:00,VALID,916.838,VALID,0,VALID,100,VALID,-0.101885,VALID,18.5662,VALID,116,VALID,0.201758,
2000-11-24, 00:11:00,VALID,916.827,VALID,0,VALID,100,VALID,-0.101885,VALID,18.5567,VALID,121,VALID,0.596917,
2000-11-24, 00:12:00,VALID,916.823,VALID,0,VALID,100,VALID,-0.0849042,VALID,18.5666,VALID,347,VALID,0.310981,
2000-11-24, 00:13:00,VALID,916.873,VALID,0,VALID,100,VALID,-0.0849042,VALID,18.5768,VALID,216,VALID,0.156055,
2000-11-24, 00:14:00,VALID,916.829,VALID,0,VALID,100,VALID,-0.118866,VALID,18.5498,VALID,128,VALID,0.52105,
2000-11-24, 00:15:00,VALID,916.792,VALID,0,VALID,100,VALID,-0.101885,VALID,18.5569,VALID,311,VALID,0.311298,
2000-11-24, 00:16:00,VALID,916.756,VALID,0,VALID,100,VALID,-0.0849042,VALID,18.5438,VALID,97,VALID,0.79796,
2000-11-24, 00:17:00,VALID,916.764,VALID,0,VALID,100,VALID,-0.0849042,VALID,18.544,VALID,183,VALID,0.341797,
2000-11-24, 00:18:00,VALID,916.794,VALID,0,VALID,100,VALID,-0.0339617,VALID,18.5364,VALID,271,VALID,0.407366,
2000-11-24, 00:19:00,VALID,916.802,VALID,0,VALID,100,VALID,0.0339617,VALID,18.5295,VALID,167,VALID,0.743666,
2000-11-24, 00:20:00,VALID,916.744,VALID,0,VALID,100,VALID,0,VALID,18.5195,VALID,208,VALID,0.55918,
2000-11-24, 00:21:00,VALID,916.771,VALID,0,VALID,100,VALID,0,VALID,18.52,VALID,185,VALID,0.616102,
2000-11-24, 00:22:00,VALID,916.732,VALID,0,VALID,100,VALID,0,VALID,18.5041,VALID,148,VALID,0.740585,
2000-11-24, 00:23:00,VALID,916.656,VALID,0,VALID,100,VALID,0,VALID,18.5043,VALID,297,VALID,0.888327,
2000-11-24, 00:24:00,VALID,916.763,VALID,0,VALID,100,VALID,0,VALID,18.4974,VALID,280,VALID,0.85625,
2000-11-24, 00:25:00,VALID,916.73,VALID,0,VALID,100,VALID,0,VALID,18.4743,VALID,326,VALID,0.746194,
2000-11-24, 00:26:00,VALID,916.704,VALID,0,VALID,100,VALID,0,VALID,18.4775,VALID,354,VALID,0.0764358,
2000-11-24, 00:27:00,VALID,916.659,VALID,0,VALID,100,VALID,0,VALID,18.4879,VALID,83,VALID,0,
2000-11-24, 00:28:00,VALID,916.631,VALID,0,VALID,100,VALID,-0.0169808,VALID,18.4845,VALID,231,VALID,0,
2000-11-24, 00:29:00,VALID,916.615,VALID,0,VALID,100,VALID,0.0339617,VALID,18.4715,VALID,224,VALID,0,
2000-11-24, 00:30:00,VALID,916.658,VALID,0,VALID,100,VALID,-0.0169808,VALID,18.4653,VALID,121,VALID,0.329072,
2000-11-24, 00:31:00,VALID,916.622,VALID,0,VALID,100,VALID,0,VALID,18.4326,VALID,294,VALID,0.197917,
2000-11-24, 00:32:00,VALID,916.601,VALID,0,VALID,100,VALID,-0.0339617,VALID,18.4333,VALID,206,VALID,0.566612,
2000-11-24, 00:33:00,VALID,916.54,VALID,0,VALID,100,VALID,0,VALID,18.4134,VALID,267,VALID,0.509215,
2000-11-24, 00:34:00,VALID,916.473,VALID,0,VALID,100,VALID,0,VALID,18.4099,VALID,259,VALID,0.250195,
2000-11-24, 00:35:00,VALID,916.533,VALID,0,VALID,100,VALID,-0.0169808,VALID,18.4201,VALID,267,VALID,0.0921875,
2000-11-24, 00:36:00,VALID,916.554,VALID,0.2,VALID,100,VALID,0,VALID,18.4171,VALID,118,VALID,1.15435,
2000-11-24, 00:37:00,VALID,916.434,VALID,0,VALID,100,VALID,0,VALID,18.4102,VALID,326,VALID,0.46829,
2000-11-24, 00:38:00,VALID,916.428,VALID,0,VALID,100,VALID,0,VALID,18.4199,VALID,264,VALID,0.25625,
2000-11-24, 00:39:00,VALID,916.413,VALID,0,VALID,100,VALID,-0.0169808,VALID,18.4134,VALID,156,VALID,0.653446,
2000-11-24, 00:40:00,VALID,916.41,VALID,0,VALID,100,VALID,0.0169808,VALID,18.4266,VALID,140,VALID,0.425676,
2000-11-24, 00:41:00,VALID,916.451,VALID,0,VALID,100,VALID,0,VALID,18.4166,VALID,190,VALID,0.23972,
2000-11-24, 00:42:00,VALID,916.471,VALID,0,VALID,100,VALID,0.0169808,VALID,18.4132,VALID,179,VALID,0.38192,
2000-11-24, 00:43:00,VALID,916.428,VALID,0,VALID,100,VALID,0,VALID,18.4261,VALID,93,VALID,1.05308,
2000-11-24, 00:44:00,VALID,916.325,VALID,0,VALID,100,VALID,0,VALID,18.439,VALID,94,VALID,1.67756,
2000-11-24, 00:45:00,VALID,916.274,VALID,0,VALID,100,VALID,-0.0169808,VALID,18.4457,VALID,94,VALID,1.52279,
2000-11-24, 00:46:00,VALID,916.281,VALID,0,VALID,100,VALID,0,VALID,18.4556,VALID,111,VALID,1.20456,
2000-11-24, 00:47:00,VALID,916.243,VALID,0,VALID,100,VALID,-0.0169808,VALID,18.4623,VALID,92,VALID,1.19511,
2000-11-24, 00:48:00,VALID,916.266,VALID,0,VALID,100,VALID,-0.0339617,VALID,18.4651,VALID,95,VALID,0.632227,
2000-11-24, 00:49:00,VALID,916.274,VALID,0,VALID,100,VALID,0,VALID,18.4681,VALID,101,VALID,1.22187,
2000-11-24, 00:50:00,VALID,916.299,VALID,0,VALID,100,VALID,0.0169808,VALID,18.4879,VALID,102,VALID,1.05553,
2000-11-24, 00:51:00,VALID,916.303,VALID,0,VALID,100,VALID,0,VALID,18.4912,VALID,153,VALID,0.369945,
2000-11-24, 00:52:00,VALID,916.266,VALID,0,VALID,100,VALID,0,VALID,18.4974,VALID,123,VALID,1.37634,
2000-11-24, 00:53:00,VALID,916.175,VALID,0,VALID,100,VALID,0.0169808,VALID,18.4974,VALID,99,VALID,2.29467,
2000-11-24, 00:54:00,VALID,916.105,VALID,0,VALID,100,VALID,0,VALID,18.5004,VALID,346,VALID,0.982897,
2000-11-24, 00:55:00,VALID,916.155,VALID,0,VALID,100,VALID,0,VALID,18.5108,VALID,27,VALID,1.44881,
2000-11-24, 00:56:00,VALID,916.1,VALID,0,VALID,100,VALID,0,VALID,18.5105,VALID,357,VALID,0.87433,
2000-11-24, 00:57:00,VALID,916.094,VALID,0,VALID,100,VALID,0,VALID,18.5071,VALID,237,VALID,0.364984,
2000-11-24, 00:58:00,VALID,916.074,VALID,0,VALID,100,VALID,0.0169808,VALID,18.5103,VALID,131,VALID,0.428267,
2000-11-24, 00:59:00,VALID,916.077,VALID,0,VALID,100,VALID,-0.0169808,VALID,18.5235,VALID,98,VALID,1.67622,
2000-11-24, 01:00:00,VALID,916.057,VALID,0,VALID,100,VALID,-0.0169808,VALID,18.5401,VALID,92,VALID,0.303085,
2000-11-24, 01:01:00,VALID,916.08,VALID,0,VALID,100,VALID,-0.0169808,VALID,18.5528,VALID,110,VALID,0.629006,
2000-11-24, 01:02:00,VALID,916.054,VALID,0,VALID,100,VALID,-0.0339617,VALID,18.5431,VALID,97,VALID,0.941211,
2000-11-24, 01:03:00,VALID,916.03,VALID,0,VALID,100,VALID,-0.0849042,VALID,18.5396,VALID,99,VALID,1.68214,
2000-11-24, 01:04:00,VALID,915.969,VALID,0,VALID,100,VALID,-0.0169808,VALID,18.5461,VALID,99,VALID,1.77492,
2000-11-24, 01:05:00,VALID,915.927,VALID,0,VALID,100,VALID,0.0169808,VALID,18.5528,VALID,95,VALID,1.77229,
2000-11-24, 01:06:00,VALID,915.9,VALID,0,VALID,100,VALID,0.0169808,VALID,18.5394,VALID,86,VALID,0.642411,
2000-11-24, 01:07:00,VALID,915.891,VALID,0,VALID,100,VALID,0,VALID,18.5431,VALID,100,VALID,1.26282,
2000-11-24, 01:08:00,VALID,915.868,VALID,0,VALID,100,VALID,-0.0169808,VALID,18.5525,VALID,308,VALID,0.627323,
2000-11-24, 01:09:00,VALID,915.866,VALID,0,VALID,100,VALID,0,VALID,18.5488,VALID,131,VALID,0.614309,
2000-11-24, 01:10:00,VALID,915.817,VALID,0,VALID,100,VALID,0.0169808,VALID,18.5722,VALID,108,VALID,1.26183,
2000-11-24, 01:11:00,VALID,915.795,VALID,0,VALID,100,VALID,0,VALID,18.5652,VALID,60,VALID,1.09235,
2000-11-24, 01:12:00,VALID,915.819,VALID,0,VALID,100,VALID,0,VALID,18.5754,VALID,275,VALID,1.07008,
2000-11-24, 01:13:00,VALID,915.83,VALID,0,VALID,100,VALID,0,VALID,18.5717,VALID,225,VALID,0.706163,
2000-11-24, 01:14:00,VALID,915.749,VALID,0,VALID,100,VALID,0,VALID,18.5719,VALID,267,VALID,0.371505,
2000-11-24, 01:15:00,VALID,915.738,VALID,0,VALID,100,VALID,0,VALID,18.5781,VALID,292,VALID,0,
2000-11-24, 01:16:00,VALID,915.737,VALID,0,VALID,100,VALID,0,VALID,18.5816,VALID,25,VALID,0,
2000-11-24, 01:17:00,VALID,915.749,VALID,0,VALID,100,VALID,0,VALID,18.5841,VALID,100,VALID,0.76183,
2000-11-24, 01:18:00,VALID,915.732,VALID,0,VALID,100,VALID,0,VALID,18.5906,VALID,152,VALID,0.360642,
2000-11-24, 01:19:00,VALID,915.728,VALID,0,VALID,100,VALID,0.0169808,VALID,18.5841,VALID,117,VALID,0.992188,
2000-11-24, 01:20:00,VALID,915.649,VALID,0,VALID,100,VALID,0,VALID,18.6035,VALID,248,VALID,0.185937,
2000-11-24, 01:21:00,VALID,915.726,VALID,0,VALID,100,VALID,0.0169808,VALID,18.6065,VALID,202,VALID,0.041867,
2000-11-24, 01:22:00,VALID,915.672,VALID,0,VALID,100,VALID,0,VALID,18.6333,VALID,113,VALID,1.71432,
2000-11-24, 01:23:00,VALID,915.659,VALID,0,VALID,100,VALID,0.0169808,VALID,18.6457,VALID,70,VALID,1.03557,
2000-11-24, 01:24:00,VALID,915.631,VALID,0,VALID,100,VALID,0.0169808,VALID,18.6492,VALID,296,VALID,0.978795,
2000-11-24, 01:25:00,VALID,915.658,VALID,0,VALID,100,VALID,0.0169808,VALID,18.6497,VALID,268,VALID,0.747596,
2000-11-24, 01:26:00,VALID,915.691,VALID,0,VALID,100,VALID,0,VALID,18.6527,VALID,325,VALID,0.545218,
2000-11-24, 01:27:00,VALID,915.629,VALID,0,VALID,100,VALID,0,VALID,18.6559,VALID,105,VALID,1.06033,
2000-11-24, 01:28:00,VALID,915.613,VALID,0,VALID,100,VALID,0,VALID,18.6587,VALID,129,VALID,0.46176,
2000-11-24, 01:29:00,VALID,915.624,VALID,0,VALID,100,VALID,0,VALID,18.6688,VALID,139,VALID,0.276442,
2000-11-24, 01:30:00,VALID,915.663,VALID,0,VALID,100,VALID,0,VALID,18.6686,VALID,73,VALID,0.107031,
2000-11-24, 01:31:00,VALID,915.648,VALID,0,VALID,100,VALID,-0.0169808,VALID,18.6746,VALID,39,VALID,0.603571,
2000-11-24, 01:32:00,VALID,915.618,VALID,0,VALID,100,VALID,0,VALID,18.6778,VALID,92,VALID,1.08171,
2000-11-24, 01:33:00,VALID,915.577,VALID,0,VALID,100,VALID,-0.0169808,VALID,18.6951,VALID,118,VALID,0.502987,
2000-11-24, 01:34:00,VALID,915.561,VALID,0,VALID,100,VALID,-0.0849042,VALID,18.6958,VALID,122,VALID,0.254911,
2000-11-24, 01:35:00,VALID,915.491,VALID,0,VALID,100,VALID,-0.0849042,VALID,18.7021,VALID,93,VALID,1.41647,
2000-11-24, 01:36:00,VALID,915.446,VALID,0,VALID,100,VALID,-0.101885,VALID,18.7016,VALID,102,VALID,1.38155,
2000-11-24, 01:37:00,VALID,915.442,VALID,0,VALID,100,VALID,-0.101885,VALID,18.7219,VALID,64,VALID,1.02405,
2000-11-24, 01:38:00,VALID,915.458,VALID,0,VALID,100,VALID,-0.101885,VALID,18.7307,VALID,253,VALID,0.3375,
2000-11-24, 01:39:00,VALID,915.43,VALID,0,VALID,100,VALID,-0.101885,VALID,18.7441,VALID,267,VALID,0.300681,
2000-11-24, 01:40:00,VALID,915.372,VALID,0,VALID,100,VALID,-0.101885,VALID,18.7702,VALID,267,VALID,0.464252,
2000-11-24, 01:41:00,VALID,915.334,VALID,0,VALID,100,VALID,-0.101885,VALID,18.76,VALID,123,VALID,0.692491,
2000-11-24, 01:42:00,VALID,915.286,VALID,0,VALID,100,VALID,-0.0849042,VALID,18.7794,VALID,95,VALID,0.907484,
2000-11-24, 01:43:00,VALID,915.249,VALID,0,VALID,100,VALID,-0.0849042,VALID,18.7928,VALID,102,VALID,1.0619,
2000-11-24, 01:44:00,VALID,915.218,VALID,0,VALID,100,VALID,-0.0679233,VALID,18.799,VALID,152,VALID,0.26582,
2000-11-24, 01:45:00,VALID,915.175,VALID,0,VALID,100,VALID,-0.101885,VALID,18.8055,VALID,177,VALID,0.208705,
2000-11-24, 01:46:00,VALID,915.161,VALID,0,VALID,100,VALID,-0.0849042,VALID,18.8186,VALID,199,VALID,0.196579,
2000-11-24, 01:47:00,VALID,915.172,VALID,0,VALID,100,VALID,-0.0849042,VALID,18.8281,VALID,223,VALID,0.193244,
2000-11-24, 01:48:00,VALID,915.193,VALID,0,VALID,100,VALID,-0.0509425,VALID,18.8274,VALID,250,VALID,0.762054,
2000-11-24, 01:49:00,VALID,915.209,VALID,0,VALID,100,VALID,0,VALID,18.8199,VALID,283,VALID,0.824319,
2000-11-24, 01:50:00,VALID,915.243,VALID,0.2,VALID,100,VALID,0.0169808,VALID,18.7971,VALID,256,VALID,0.920819,
2000-11-24, 01:51:00,VALID,915.232,VALID,0.2,VALID,100,VALID,0.0339617,VALID,18.7906,VALID,276,VALID,0.905633,
2000-11-24, 01:52:00,VALID,915.218,VALID,0,VALID,100,VALID,0.0169808,VALID,18.8003,VALID,313,VALID,1.22098,
2000-11-24, 01:53:00,VALID,915.292,VALID,0.2,VALID,100,VALID,0,VALID,18.8557,VALID,323,VALID,2.39243,
2000-11-24, 01:54:00,VALID,915.3,VALID,0,VALID,100,VALID,0.0509425,VALID,18.8811,VALID,318,VALID,0.669744,
2000-11-24, 01:55:00,VALID,915.254,VALID,0,VALID,100,VALID,0.0169808,VALID,18.8942,VALID,308,VALID,0.770182,
2000-11-24, 01:56:00,VALID,915.258,VALID,0,VALID,100,VALID,0.0169808,VALID,18.9039,VALID,313,VALID,1.23499,
2000-11-24, 01:57:00,VALID,915.336,VALID,0,VALID,100,VALID,0.0339617,VALID,18.9236,VALID,325,VALID,0.732973,
2000-11-24, 01:58:00,VALID,915.315,VALID,0,VALID,100,VALID,0,VALID,18.933,VALID,273,VALID,0.287109,
2000-11-24, 01:59:00,VALID,915.18,VALID,0,VALID,100,VALID,0,VALID,18.9399,VALID,169,VALID,1.33884,
2000-11-24, 02:00:00,VALID,915.02,VALID,0,VALID,100,VALID,0.0169808,VALID,18.9462,VALID,292,VALID,3.20249,
2000-11-24, 02:01:00,VALID,915.077,VALID,0,VALID,100,VALID,0.0169808,VALID,18.9522,VALID,310,VALID,1.19968,
2000-11-24, 02:02:00,VALID,915.205,VALID,0,VALID,100,VALID,0.0169808,VALID,18.9787,VALID,332,VALID,0.695089,
2000-11-24, 02:03:00,VALID,915.186,VALID,0,VALID,100,VALID,-0.0509425,VALID,18.9667,VALID,64,VALID,0.727965,
2000-11-24, 02:04:00,VALID,915.122,VALID,0,VALID,100,VALID,-0.101885,VALID,18.9504,VALID,2,VALID,2.08552,
2000-11-24, 02:05:00,VALID,915.149,VALID,0,VALID,100,VALID,-0.0849042,VALID,18.9501,VALID,301,VALID,1.10259,
2000-11-24, 02:06:00,VALID,915.163,VALID,0,VALID,100,VALID,-0.118866,VALID,18.9568,VALID,219,VALID,0.257143,
2000-11-24, 02:07:00,VALID,915.057,VALID,0,VALID,100,VALID,-0.101885,VALID,18.967,VALID,92,VALID,1.24159,
2000-11-24, 02:08:00,VALID,915.108,VALID,0,VALID,100,VALID,-0.0679233,VALID,18.9471,VALID,94,VALID,2.58049,
2000-11-24, 02:09:00,VALID,914.876,VALID,0,VALID,100,VALID,-0.0849042,VALID,18.9538,VALID,345,VALID,2.30122,
2000-11-24, 02:10:00,VALID,915.068,VALID,0.2,VALID,100,VALID,-0.101885,VALID,18.9439,VALID,245,VALID,1.74918,
2000-11-24, 02:11:00,VALID,915.025,VALID,0,VALID,100,VALID,-0.0849042,VALID,18.9441,VALID,277,VALID,0.98137,
2000-11-24, 02:12:00,VALID,915.124,VALID,0.2,VALID,100,VALID,-0.101885,VALID,18.9513,VALID,347,VALID,1.84609,
2000-11-24, 02:13:00,VALID,915.051,VALID,0,VALID,100,VALID,-0.0849042,VALID,18.9767,VALID,305,VALID,2.08058,
2000-11-24, 02:14:00,VALID,915.017,VALID,0.2,VALID,100,VALID,-0.0679233,VALID,18.9723,VALID,332,VALID,2.13872,
2000-11-24, 02:15:00,VALID,914.982,VALID,0,VALID,100,VALID,-0.101885,VALID,19.0222,VALID,321,VALID,2.56733,
2000-11-24, 02:16:00,VALID,914.884,VALID,0.2,VALID,100,VALID,-0.101885,VALID,19.0378,VALID,329,VALID,1.39732,
2000-11-24, 02:17:00,VALID,914.838,VALID,0.2,VALID,100,VALID,-0.0509425,VALID,19.0311,VALID,35,VALID,0.85617,
2000-11-24, 02:18:00,VALID,914.968,VALID,0.2,VALID,99.9784,VALID,-0.0679233,VALID,19.0085,VALID,325,VALID,3.072,
2000-11-24, 02:19:00,VALID,915.03,VALID,0.2,VALID,99.8947,VALID,-0.0169808,VALID,19.0339,VALID,304,VALID,3.32771,
2000-11-24, 02:20:00,VALID,915.054,VALID,0.2,VALID,99.8388,VALID,-0.0679233,VALID,19.0505,VALID,255,VALID,2.03504,
2000-11-24, 02:21:00,VALID,915.105,VALID,0.4,VALID,99.7866,VALID,-0.0509425,VALID,19.0346,VALID,283,VALID,1.19611,
2000-11-24, 02:22:00,VALID,915.127,VALID,0.4,VALID,99.7841,VALID,-0.0679233,VALID,19.0222,VALID,328,VALID,3.05114,
2000-11-24, 02:23:00,VALID,915.088,VALID,0.4,VALID,99.7587,VALID,-0.0509425,VALID,19.0182,VALID,322,VALID,2.86675,
2000-11-24, 02:24:00,VALID,915.095,VALID,0,VALID,99.7396,VALID,-0.0849042,VALID,19.0152,VALID,319,VALID,1.67352,
2000-11-24, 02:25:00,VALID,915.188,VALID,0.2,VALID,99.7574,VALID,-0.0849042,VALID,19.0087,VALID,20,VALID,0.624199,
2000-11-24, 02:26:00,VALID,915.261,VALID,0.2,VALID,99.7523,VALID,-0.101885,VALID,18.9926,VALID,166,VALID,0.370703,
2000-11-24, 02:27:00,VALID,915.153,VALID,0.2,VALID,99.7612,VALID,-0.101885,VALID,18.9799,VALID,291,VALID,0.423214,
2000-11-24, 02:28:00,VALID,915.13,VALID,0.2,VALID,99.7765,VALID,-0.0849042,VALID,18.96,VALID,336,VALID,0.270059,
2000-11-24, 02:29:00,VALID,915.188,VALID,0,VALID,99.8133,VALID,-0.101885,VALID,18.9575,VALID,4,VALID,0.138557,
2000-11-24, 02:30:00,VALID,915.209,VALID,0.2,VALID,99.8337,VALID,-0.0849042,VALID,18.9446,VALID,15,VALID,0.93683,
2000-11-24, 02:31:00,VALID,915.224,VALID,0.2,VALID,99.8566,VALID,-0.0849042,VALID,18.9377,VALID,297,VALID,0.451322,
2000-11-24, 02:32:00,VALID,915.26,VALID,0.2,VALID,99.8833,VALID,-0.0849042,VALID,18.9379,VALID,335,VALID,1.04286,
2000-11-24, 02:33:00,VALID,915.253,VALID,0.2,VALID,99.896,VALID,-0.0169808,VALID,18.9208,VALID,19,VALID,0.769531,
2000-11-24, 02:34:00,VALID,915.22,VALID,0.2,VALID,99.9087,VALID,0.0339617,VALID,18.9236,VALID,40,VALID,0.278795,
2000-11-24, 02:35:00,VALID,915.197,VALID,0,VALID,99.9278,VALID,0,VALID,18.9332,VALID,92,VALID,0.449319,
2000-11-24, 02:36:00,VALID,915.226,VALID,0.2,VALID,99.9532,VALID,0.0169808,VALID,18.9166,VALID,207,VALID,0.3866,
2000-11-24, 02:37:00,VALID,915.172,VALID,0,VALID,99.9685,VALID,0.0169808,VALID,18.9298,VALID,132,VALID,1.1365,
2000-11-24, 02:38:00,VALID,915.084,VALID,0,VALID,99.9723,VALID,0.0339617,VALID,18.9164,VALID,151,VALID,0.292352,
2000-11-24, 02:39:00,VALID,915.138,VALID,0,VALID,99.9825,VALID,0.0339617,VALID,18.9332,VALID,23,VALID,0.466346,
2000-11-24, 02:40:00,VALID,915.024,VALID,0,VALID,99.9931,VALID,0.0169808,VALID,18.9367,VALID,332,VALID,1.09219,
2000-11-24, 02:41:00,VALID,915.172,VALID,0.2,VALID,100,VALID,0,VALID,18.9392,VALID,16,VALID,1.55871,
2000-11-24, 02:42:00,VALID,915.095,VALID,0,VALID,99.9858,VALID,0,VALID,18.9425,VALID,291,VALID,1.1098,
2000-11-24, 02:43:00,VALID,915.002,VALID,0,VALID,99.929,VALID,0.0339617,VALID,18.933,VALID,275,VALID,1.16222,
2000-11-24, 02:44:00,VALID,914.976,VALID,0,VALID,99.8655,VALID,0.0339617,VALID,18.9494,VALID,358,VALID,1.67478,
2000-11-24, 02:45:00,VALID,914.832,VALID,0,VALID,99.7141,VALID,0,VALID,18.9745,VALID,304,VALID,2.71815,
2000-11-24, 02:46:00,VALID,914.847,VALID,0.2,VALID,99.2589,VALID,0.0169808,VALID,19.0714,VALID,306,VALID,3.24641,
2000-11-24, 02:47:00,VALID,914.829,VALID,0,VALID,98.9372,VALID,0.0679233,VALID,19.1264,VALID,20,VALID,0.663857,
2000-11-24, 02:48:00,VALID,914.873,VALID,0.2,VALID,98.7274,VALID,0,VALID,19.0851,VALID,216,VALID,1.4375,
2000-11-24, 02:49:00,VALID,914.874,VALID,0,VALID,98.6435,VALID,-0.0169808,VALID,19.0602,VALID,65,VALID,2.26683,
2000-11-24, 02:50:00,VALID,914.883,VALID,0,VALID,98.4934,VALID,-0.0509425,VALID,19.0533,VALID,326,VALID,1.76728,
2000-11-24, 02:51:00,VALID,915.017,VALID,0.2,VALID,98.5773,VALID,-0.0679233,VALID,19.0408,VALID,295,VALID,1.14497,
2000-11-24, 02:52:00,VALID,915.149,VALID,0.2,VALID,98.7032,VALID,-0.0339617,VALID,18.9953,VALID,269,VALID,0.378495,
2000-11-24, 02:53:00,VALID,915.158,VALID,0,VALID,98.8431,VALID,-0.0849042,VALID,18.9792,VALID,97,VALID,0.972155,
2000-11-24, 02:54:00,VALID,915.133,VALID,0.2,VALID,98.9575,VALID,-0.0339617,VALID,18.9665,VALID,103,VALID,0.737109,
2000-11-24, 02:55:00,VALID,915.175,VALID,0,VALID,99.072,VALID,-0.0849042,VALID,18.9437,VALID,135,VALID,0.194643,
2000-11-24, 02:56:00,VALID,915.202,VALID,0.2,VALID,99.1737,VALID,-0.0679233,VALID,18.9506,VALID,64,VALID,0.694046,
2000-11-24, 02:57:00,VALID,915.204,VALID,0.2,VALID,99.2665,VALID,-0.0849042,VALID,18.9501,VALID,236,VALID,0.502528,
2000-11-24, 02:58:00,VALID,915.178,VALID,0.2,VALID,99.353,VALID,-0.101885,VALID,18.9437,VALID,226,VALID,0.974554,
2000-11-24, 02:59:00,VALID,915.268,VALID,0.2,VALID,99.4484,VALID,-0.0849042,VALID,18.9568,VALID,290,VALID,1.48177,
2000-11-24, 03:00:00,VALID,915.205,VALID,0.2,VALID,99.5209,VALID,-0.0679233,VALID,18.9857,VALID,358,VALID,1.22171,
2000-11-24, 03:01:00,VALID,915.274,VALID,0,VALID,99.5755,VALID,-0.0849042,VALID,18.9953,VALID,169,VALID,0.875411,
2000-11-24, 03:02:00,VALID,915.285,VALID,0,VALID,99.6277,VALID,-0.101885,VALID,19.002,VALID,225,VALID,1.04353,
2000-11-24, 03:03:00,VALID,915.276,VALID,0.2,VALID,99.6671,VALID,0.0169808,VALID,19.0205,VALID,291,VALID,0.951923,
2000-11-24, 03:04:00,VALID,915.315,VALID,0,VALID,99.704,VALID,0.0509425,VALID,19.0262,VALID,124,VALID,0.91643,
2000-11-24, 03:05:00,VALID,915.325,VALID,0,VALID,99.7281,VALID,0.0509425,VALID,19.0361,VALID,111,VALID,1.15473,
2000-11-24, 03:06:00,VALID,915.328,VALID,0,VALID,99.7548,VALID,0.0339617,VALID,19.0327,VALID,134,VALID,1.18462,
2000-11-24, 03:07:00,VALID,915.335,VALID,0,VALID,99.7663,VALID,0.0339617,VALID,19.0493,VALID,28,VALID,0.805889,
2000-11-24, 03:08:00,VALID,915.299,VALID,0,VALID,99.7841,VALID,0.0339617,VALID,19.0456,VALID,265,VALID,0.292773,
2000-11-24, 03:09:00,VALID,915.319,VALID,0.2,VALID,99.7955,VALID,0.0339617,VALID,19.0329,VALID,249,VALID,0.934375,
2000-11-24, 03:10:00,VALID,915.319,VALID,0,VALID,99.8006,VALID,0.0169808,VALID,19.0329,VALID,287,VALID,1.24831,
2000-11-24, 03:11:00,VALID,915.304,VALID,0,VALID,99.7854,VALID,0.0509425,VALID,19.0068,VALID,95,VALID,2.85754,
2000-11-24, 03:12:00,VALID,915.358,VALID,0.2,VALID,99.807,VALID,0.0339617,VALID,19.0043,VALID,118,VALID,1.56317,
2000-11-24, 03:13:00,VALID,915.305,VALID,0,VALID,99.826,VALID,0.0509425,VALID,18.9845,VALID,68,VALID,1.61498,
2000-11-24, 03:14:00,VALID,915.306,VALID,0.2,VALID,99.8222,VALID,0.0169808,VALID,18.9782,VALID,133,VALID,1.50486,
2000-11-24, 03:15:00,VALID,915.305,VALID,0,VALID,99.8413,VALID,0,VALID,18.9551,VALID,220,VALID,1.50267,
2000-11-24, 03:16:00,VALID,915.347,VALID,0,VALID,99.8375,VALID,0,VALID,18.9425,VALID,154,VALID,1.31027,
2000-11-24, 03:17:00,VALID,915.277,VALID,0,VALID,99.8388,VALID,0.0509425,VALID,18.9231,VALID,105,VALID,1.60136,
2000-11-24, 03:18:00,VALID,915.283,VALID,0,VALID,99.8578,VALID,0.0509425,VALID,18.9161,VALID,219,VALID,1.10133,
2000-11-24, 03:19:00,VALID,915.306,VALID,0,VALID,99.8566,VALID,0.0679233,VALID,18.9129,VALID,110,VALID,1.63498,
2000-11-24, 03:20:00,VALID,915.324,VALID,0,VALID,99.8629,VALID,0.0679233,VALID,18.9002,VALID,143,VALID,0.956209,
2000-11-24, 03:21:00,VALID,915.296,VALID,0,VALID,99.8693,VALID,0.0509425,VALID,18.9035,VALID,58,VALID,0.47496,
2000-11-24, 03:22:00,VALID,915.265,VALID,0,VALID,99.8706,VALID,0.0849042,VALID,18.8831,VALID,202,VALID,1.21719,
2000-11-24, 03:23:00,VALID,915.203,VALID,0,VALID,99.8807,VALID,0.0679233,VALID,18.8771,VALID,153,VALID,1.3279,
2000-11-24, 03:24:00,VALID,915.178,VALID,0.2,VALID,99.8947,VALID,0.0509425,VALID,18.8647,VALID,168,VALID,1.46812,
2000-11-24, 03:25:00,VALID,915.174,VALID,0,VALID,99.9087,VALID,0.101885,VALID,18.8744,VALID,110,VALID,1.25965,
2000-11-24, 03:26:00,VALID,915.21,VALID,0,VALID,99.9227,VALID,0.0849042,VALID,18.8617,VALID,121,VALID,1.3067,
2000-11-24, 03:27:00,VALID,915.165,VALID,0,VALID,99.929,VALID,0.101885,VALID,18.8582,VALID,92,VALID,1.89343,
2000-11-24, 03:28:00,VALID,915.075,VALID,0,VALID,99.943,VALID,0.0339617,VALID,18.8451,VALID,82,VALID,2.27935,
2000-11-24, 03:29:00,VALID,915.083,VALID,0,VALID,99.9456,VALID,0.0509425,VALID,18.8289,VALID,166,VALID,1.46176,
2000-11-24, 03:30:00,VALID,915.126,VALID,0.2,VALID,99.9519,VALID,0.0339617,VALID,18.8262,VALID,89,VALID,1.97054,
2000-11-24, 03:31:00,VALID,915.205,VALID,0.2,VALID,99.9596,VALID,0.0509425,VALID,18.8225,VALID,106,VALID,1.22356,
2000-11-24, 03:32:00,VALID,915.15,VALID,0,VALID,99.9799,VALID,0.0679233,VALID,18.8195,VALID,21,VALID,0.925426,
2000-11-24, 03:33:00,VALID,915.162,VALID,0.2,VALID,99.9898,VALID,0.0509425,VALID,18.8292,VALID,98,VALID,1.47786,
2000-11-24, 03:34:00,VALID,915.073,VALID,0,VALID,99.9949,VALID,0.0339617,VALID,18.8098,VALID,126,VALID,1.27652,
2000-11-24, 03:35:00,VALID,915.067,VALID,0,VALID,99.9929,VALID,0.0169808,VALID,18.8061,VALID,124,VALID,0.935497,
2000-11-24, 03:36:00,VALID,915.066,VALID,0,VALID,99.9733,VALID,0.0509425,VALID,18.7745,VALID,167,VALID,0.556641,
2000-11-24, 03:37:00,VALID,915.127,VALID,0.2,VALID,99.9873,VALID,0.0169808,VALID,18.7643,VALID,158,VALID,1.44375,